Regional Weather Roundup
Issued by NWS

Home | Current Version | Previous Version | Graphics & Text | Print | Product List | Glossary On
Versions: 1 2 3 4 5 6 7 8 9 10 11 12 13 14 15 16 17 18 19 20 21 22 23 24 25 26 27 28 29 30 31 32 33 34 35 36 37 38 39 40 41 42 43 44 45 46 47 48 49 50
000
ASUS43 KMPX 291510
RWRMN
WEATHER ROUNDUP FOR MINNESOTA
NATIONAL WEATHER SERVICE TWIN CITIES/CHANHASSEN MN
1000 AM CDT FRI MAY 29 2015


NOTE: "FAIR" INDICATES FEW OR NO CLOUDS BELOW 12,000 FEET WITH NO
SIGNIFICANT WEATHER AND/OR OBSTRUCTIONS TO VISIBILITY. N/A MEANS
CURRENT SKY AND/OR WEATHER CONDITIONS ARE NOT AVAILABLE.

MNZ060>063-068>070-291600-
   Twin Cities Metro

CITY           SKY/WX    TMP DP  RH WIND       PRES   REMARKS
TWIN CITIES    CLOUDY    69  65  86 W6        29.88R
ST PAUL        CLOUDY    69  65  86 SW6       29.88R
CRYSTAL        CLOUDY    70  64  81 SW9       29.87R
BLAINE         CLOUDY    72  66  83 SW7       29.88R
LAKEVILLE      DRIZZLE   64  63  94 CALM      29.87F
EDEN PRAIRIE   CLOUDY    69  63  81 W8        29.88R
SOUTH ST PAUL  CLOUDY    69  65  89 CALM      29.88R
LAKE ELMO      CLOUDY    68  64  88 SW6       29.90R
$$
MNZ001>005-007-008-013>017-022>024-027-028-291600-
   Northwest Minnesota

CITY           SKY/WX    TMP DP  RH WIND       PRES   REMARKS
BEMIDJI        CLOUDY    48  46  93 N15G23    30.01R
HALLOCK        CLOUDY    43  37  81 N21G30    30.15R
ROSEAU         CLOUDY    45  39  81 N15G21    30.08R
WARROAD        CLOUDY    46  41  81 NW14G23   30.07R
THIEF RVR FALL CLOUDY    45  39  81 N22       30.09R
CROOKSTON      CLOUDY    45  39  81 N24G31    30.12R
FOSSTON        CLOUDY    45  43  93 N21       30.06R
DETROIT LAKES  CLOUDY    50  46  87 N13G29    30.02R
MOORHEAD       CLOUDY    46  43  87 N29G37    30.07R
PARK RAPIDS    CLOUDY    56  52  86 N15       29.96R
MAHNOMEN       CLOUDY    47  44  90 N17G28    30.05R
$$
MNZ006-009>011-018-025>026-291600-
   North Central Minnesota

CITY           SKY/WX    TMP DP  RH WIND       PRES   REMARKS
BAUDETTE       CLOUDY    47  42  83 N18G28    30.02R
FLAG ISLAND    CLOUDY    45  41  87 NW28      30.04R
INTL FALLS     CLOUDY    53  49  86 NW13      29.95R
WASKISH        CLOUDY    46  46 100 NW5G17    30.01R
BIG FORK       CLOUDY    55  54  94 N7        29.94R
LONGVILLE      CLOUDY    57  55  94 NW8       29.94R
GRAND RAPIDS   CLOUDY    57  54  88 N17       29.91R
CRANE LAKE     CLOUDY    55  55 100 N9        29.92R
COOK           LGT RAIN  57  57 100 N7        29.90R
WALKER         DRIZZLE   53  52  97 N9        29.97R
$$
MNZ012-019>021-037-291600-
   Northeast Minnesota

CITY           SKY/WX    TMP DP  RH WIND       PRES   REMARKS
DULUTH         PTSUNNY   63  57  81 W7        29.87S
HIBBING        LGT RAIN  58  56  93 NW5       29.89R FOG
EVELETH        DRIZZLE   59  54  82 W5        29.89R
DULUTH HARBOR  CLOUDY    46  45  93 CALM      29.88F
TWO HARBORS    CLOUDY    61  55  82 S3        29.85S
SILVER BAY     CLOUDY    63  57  82 CALM      29.85S
GRAND MARAIS     N/A     42  40  92 SW3       29.86F
G MARAIS ARPRT CLOUDY    59  52  77 S6        29.87S
$$
MNZ029>031-032-039>041-046>048-054>057-064-291600-
   West Central Minnesota

CITY           SKY/WX    TMP DP  RH WIND       PRES   REMARKS
FERGUS FALLS   CLOUDY    52  52 100 N15G29    29.99R
WHEATON        LGT RAIN  46  46 100 N23G35    30.03R
MORRIS         LGT RAIN  55  55 100 NW17      29.95R
ALEXANDRIA     CLOUDY    60  59  96 N10       29.95R
ELBOW LAKE     LGT RAIN  56  55  96 N20       29.96R
WADENA         CLOUDY    57  55  94 N13G22    29.95R
GLENWOOD       LGT RAIN  63  61  94 N5        29.94R
APPLETON       RAIN      59  55  88 N20       29.95R
BENSON         LGT RAIN  63  59  88 NE8       29.93R
ORTONVILLE     DRIZZLE   52  50  93 N16G29    29.98R
MADISON        RAIN      57  55  94 N20G29    29.95R
WILLMAR        LGT RAIN  66  61  82 N12       29.93R
$$
MNZ033>034-036-042>043-049>051-058-059-291600-
   Central Minnesota

CITY           SKY/WX    TMP DP  RH WIND       PRES   REMARKS
ST CLOUD       CLOUDY    66  59  78 N7        29.89R
SAUK CENTRE    LGT RAIN  62  59  90 N6        29.93R
PAYNESVILLE    RAIN      61  58  91 NW5       29.91S
PINE RIVER     DRIZZLE   59  57  94 N10G18    29.97R
BRAINERD       CLOUDY    63  58  83 N8        29.92R
STAPLES        DRIZZLE   57  55  94 N14G20    29.93R
LONG PRAIRIE   LGT RAIN  61  59  94 NW7       29.93R
LITTLE FALLS   LGT RAIN  64  55  72 N6        29.91R
LITCHFIELD     CLOUDY    68  64  88 NW9       29.90S
BUFFALO        DRIZZLE   67  63  85 W5        29.89S
MAPLE LAKE     CLOUDY    66  64  92 W3        29.90R FOG
$$
MNZ037-044-045-052-053-291600-
   East Central Minnesota

CITY           SKY/WX    TMP DP  RH WIND       PRES   REMARKS
PRINCETON      CLOUDY    66  63  88 CALM      29.89R
MORA           CLOUDY    64  59  82 NW5       29.90S
CAMBRIDGE      LGT RAIN  70  61  73 CALM      29.87R
RUSH CITY      CLOUDY    66  63  90 S3        29.89S
MOOSE LAKE     CLOUDY    66  59  77 CALM      29.87R
HINCKLEY       LGT RAIN  64  63  94 W3        29.89R
CLOQUET        PTSUNNY   66  55  68 NW6       29.87F
MCGREGOR       CLOUDY    63  59  88 NW6       29.90R
$$
MNZ071>073-080-081-089-090-097-098-291600-
   Southwest Minnesota

CITY           SKY/WX    TMP DP  RH WIND       PRES   REMARKS
MONTEVIDEO     LGT RAIN  63  63 100 N10       29.93S
GRANITE FALLS  RAIN      62  60  96 NW9       29.93R
CANBY          HVY RAIN  61  60  96 N8        29.95R
MARSHALL       CLOUDY    63  57  82 N14       29.91S
REDWOOD FALLS  LGT RAIN  65  61  87 N6        29.90R
OLIVIA         LGT RAIN  64  61  88 N9        29.89S
PIPESTONE      CLOUDY    64  63  94 S2        29.91S
WINDOM         DRIZZLE   66  61  82 CALM      29.92S
WORTHINGTON    CLOUDY    64  61  88 S7        29.92S
JACKSON        CLOUDY    64  64 100 SW8       29.92R FOG
TRACY          LGT RAIN  64  62  96 N9        29.92S
SLAYTON        RAIN      64  64  99 CALM      29.92S
$$
MNZ065>067-074>077-082>085-091>093-291600-
   South Central Minnesota

CITY           SKY/WX    TMP DP  RH WIND       PRES   REMARKS
MANKATO        CLOUDY    64  61  88 S10       29.89R
NEW ULM        LGT RAIN  64  64 100 W7        29.91R
ST JAMES       HVY RAIN  66  64  94 SW6       29.92R
FAIRMONT       CLOUDY    66  61  82 S13G20    29.90S
GLENCOE        CLOUDY    68  65  89 SW7       29.89R
FARIBAULT      CLOUDY    66  63  88 S6        29.89R
OWATONNA       CLOUDY    66  63  88 S5        29.89F
WASECA         CLOUDY    64  61  88 S7        29.91R
ALBERT LEA     CLOUDY    68  64  88 S7        29.90F
$$
MNZ078>079-086>088-094>096-291600-
   Southeast Minnesota

CITY           SKY/WX    TMP DP  RH WIND       PRES   REMARKS
ROCHESTER      CLOUDY    69  63  81 S10       29.93F
RED WING       DRIZZLE   70  64  83 SW5       29.88F
STANTON        LGT RAIN  67  63  85 SW3       29.86F
DODGE CENTER   CLOUDY    68  63  83 S8        29.90F
WINONA         CLOUDY    72  63  73 SW6       29.92F
AUSTIN         CLOUDY    66  63  88 S5        29.92F
PRESTON        CLOUDY    67  62  83 SW5       29.95S
$$
ABBREVIATIONS USED IN REMARKS
   TC - TEMPERATURES IN CELSIUS
  WCI - WIND CHILL INDEX
   HX - HEAT INDEX
  VSB - VISIBILITY
$$



USA.gov is the U.S. government's official web portal to all federal, state and local government web resources and services.